TimeCDT,TemperatureF,Dew PointF,Humidity,Sea Level PressureIn,VisibilityMPH,Wind Direction,Wind SpeedMPH,Gust SpeedMPH,PrecipitationIn,Events,Conditions,WindDirDegrees,DateUTC
12:53 AM,55.0,37.9,53,29.97,10.0,North,9.2,-,N/A,,Clear,350,2012-10-31 05:53:00
1:53 AM,53.1,37.9,57,29.98,10.0,NNW,8.1,-,N/A,,Clear,340,2012-10-31 06:53:00
2:53 AM,53.1,37.9,57,29.99,10.0,North,11.5,-,N/A,,Clear,360,2012-10-31 07:53:00
3:53 AM,48.0,37.0,66,29.99,10.0,North,10.4,-,N/A,,Clear,360,2012-10-31 08:53:00
4:53 AM,48.9,37.0,64,29.99,10.0,North,10.4,-,N/A,,Clear,360,2012-10-31 09:53:00
5:53 AM,48.9,37.0,64,30.01,10.0,NNW,9.2,-,N/A,,Clear,340,2012-10-31 10:53:00
6:53 AM,46.0,37.0,71,30.03,10.0,North,5.8,-,N/A,,Clear,360,2012-10-31 11:53:00
7:53 AM,45.0,37.0,74,30.05,10.0,NNW,6.9,-,N/A,,Clear,330,2012-10-31 12:53:00
8:53 AM,51.1,37.9,61,30.08,10.0,NNW,9.2,-,N/A,,Clear,340,2012-10-31 13:53:00
9:53 AM,57.0,39.0,51,30.08,10.0,North,8.1,-,N/A,,Clear,360,2012-10-31 14:53:00
10:53 AM,63.0,39.0,41,30.08,10.0,North,6.9,-,N/A,,Clear,350,2012-10-31 15:53:00
11:53 AM,68.0,39.0,35,30.08,10.0,North,5.8,-,N/A,,Clear,350,2012-10-31 16:53:00
12:53 PM,70.0,37.9,31,30.06,10.0,East,3.5,-,N/A,,Clear,100,2012-10-31 17:53:00
1:53 PM,73.9,39.0,28,30.04,10.0,Calm,Calm,-,N/A,,Clear,0,2012-10-31 18:53:00
2:53 PM,75.9,39.0,26,30.01,10.0,Variable,3.5,-,N/A,,Clear,0,2012-10-31 19:53:00
3:53 PM,75.9,37.9,25,30.00,10.0,SSE,5.8,-,N/A,,Clear,160,2012-10-31 20:53:00
4:53 PM,77.0,37.9,24,29.99,10.0,South,8.1,-,N/A,,Clear,190,2012-10-31 21:53:00
5:53 PM,75.0,37.9,26,29.98,10.0,South,9.2,-,N/A,,Clear,170,2012-10-31 22:53:00
6:53 PM,63.0,39.9,43,30.00,10.0,South,8.1,-,N/A,,Clear,170,2012-10-31 23:53:00
7:53 PM,59.0,39.0,48,30.02,10.0,SSE,8.1,-,N/A,,Clear,150,2012-11-01 00:53:00
8:53 PM,55.9,39.0,53,30.02,10.0,SSE,8.1,-,N/A,,Clear,160,2012-11-01 01:53:00
9:53 PM,55.9,39.0,53,30.02,10.0,SSE,9.2,-,N/A,,Clear,160,2012-11-01 02:53:00
10:53 PM,60.1,39.0,46,30.01,10.0,South,11.5,-,N/A,,Clear,190,2012-11-01 03:53:00
11:53 PM,59.0,39.0,48,29.99,10.0,SSW,13.8,-,N/A,,Clear,200,2012-11-01 04:53:00